STARLINK-32415, 61861

Orbit data source: Space-Track

STARLINK-32415, 61861 is a payload satellite owned by SpaceX/Seattle (US) in LEO that was launched on Thu, 07 Nov 2024 UTC via an FALCON 9 launch vehicle from the Air Force Eastern Test Range (AFETR). Payload-class satellites include a variety of spacecraft equipped with specific instruments for various scientific and technological missions. These include communications satellites like Starlink; space stations such as the ISS; scientific satellites like the Hubble; Earth observation satellites from companies like Planet Labs, Umbra, and HawkEye 360; GPS; miniature CubeSats for education and research; and military/defense satellites.

Loading next visibility...
Identifier
61861, 2024-202S
Orbit
LEO
Country
Flag of USUS
Related business
Manufacturer
SpaceX/Seattle
Mission
Operational Commercial Communications
Bus & Motor
STARLINK V2M, Unknown motor
Mass
730 kg wet, ~700 kg dry
Launch date (UTC)
2024-11-07 (2 years ago)
Launch vehicle
FALCON 9
Launch site
Air Force Eastern Test Range (AFETR)
Object type
Payload
Rocket body
Debris
Shape & HBR
Box + 2 Pan, 17.7 m
Radar Cross Section
33.884 m², Large (>1 m²)

Expand to show TLE details & history
Last TLE update: 23 hours ago

TLE from 23 hours ago
0 STARLINK-32415
1 61861U 24202S   26266.20469636  .00000613  00000-0  31787-4 0  9990
2 61861  43.0051 202.6437 0000852 277.2742  82.8013 15.27577921105539
Epoch: 2026-09-23T04:54Z
TLE epoch observation values (Epoch: 2026-09-23T04:54:45.765Z)
Latitude
-0.00001°
Longitude
126.89383°
Altitude
482.758 km
Speed
7.626 km/s
True Right ascension
13h 30m 34s
True Declination
0° 00' 00"
Sunlit
Object was in daylight at epoch
Visualization orbit readout
Latitude
Unknown
Longitude
Unknown
Altitude
Unknown
Speed
Unknown
Apparent Right ascension
Unknown
Apparent Declination
Unknown
Sunlit
N/A
Visualization observer readout
Local Sidereal Time
20:48:13
Azimuth
Unknown
Elevation
Unknown
Doppler factor
Unknown
Orbital elements
Apogee altitude
485.584 km
Perigee altitude
484.415 km
Semi-major axis
6,863.137 km
Eccentricity
0.00009
Inclination
43.0051°
RAAN
202.6437°
Arg. of periapsis
277.2742°
True anomaly
82.81099°
Mean anomaly
82.8013°
Eccentric anomaly
82.80614°
Mean motion
3.81733 °/min
Orbital period
94.31 mins
BSTAR
0.000031787
Loading maneuver chart data...
Computing Atmospheric mass density...
Loading historical data...
Loading historical data...
Loading historical data...
Loading historical data...
Loading historical data...
Loading historical data...
Loading historical data...

Documentation

Showing up to 5 results
|